Location: Unspecified
(49.2170°N, 0.0000°E)
Time: 17:28:06
(UTC+00:00)

Vanguard 3 - Pass Details

Date: 03 July 2019
Orbit: 507 x 3264 km, 33.4° (Epoch: 17 July)

Event Time Altitude Azimuth Distance (km) Brightness Sun altitude
Rises 11:32:04 0° 263° (W) 6,999 11.9 63.0°
Reaches altitude 10° 11:37:42 10° 256° (WSW) 5,698 11.6 63.2°
Maximum altitude 11:51:19 35° 201° (SSW) 3,064 11.2 63.6°
Drops below altitude 10° 12:00:07 10° 140° (SE) 3,664 11.0 63.7°
Sets 12:02:53 0° 131° (SE) 4,311 11.1 63.7°
